STARLINK-31603, 59201

Orbit data source: Space-Track

STARLINK-31603, 59201 is a payload satellite owned by SpaceX/Seattle (US) in LEO that was launched on Mon, 11 Mar 2024 UTC via an FALCON 9 launch vehicle from the Air Force Western Test Range (AFWTR). Payload-class satellites include a variety of spacecraft equipped with specific instruments for various scientific and technological missions. These include communications satellites like Starlink; space stations such as the ISS; scientific satellites like the Hubble; Earth observation satellites from companies like Planet Labs, Umbra, and HawkEye 360; GPS; miniature CubeSats for education and research; and military/defense satellites.

Loading next visibility...
Identifier
59201, 2024-046A
Orbit
LEO
Country
Flag of USUS
Related business
Manufacturer
SpaceX/Seattle
Mission
Operational Commercial Communications
Bus & Motor
STARLINK V2M, Unknown motor
Mass
730 kg wet, ~700 kg dry
Launch date (UTC)
2024-03-11 (2 years ago)
Launch vehicle
FALCON 9
Launch site
Air Force Western Test Range (AFWTR)
Object type
Payload
Rocket body
Debris
Shape & HBR
Box + 2 Pan, 17.7 m
Radar Cross Section
33.884 m², Large (>1 m²)

Expand to show TLE details & history
Last TLE update: 2 days ago

TLE from 2 days ago
0 STARLINK-31603
1 59201U 24046A   26171.35166617 -.00001096  00000-0 -24888-4 0  9997
2 59201  53.1618  38.7665 0001110  95.9103 264.2025 15.30189872128767
Epoch: 2026-06-20T08:26Z
TLE epoch observation values (Epoch: 2026-06-20T08:26:23.957Z)
Latitude
0.00005°
Longitude
3.59919°
Altitude
476.222 km
Speed
7.629 km/s
True Right ascension
02h 35m 03s
True Declination
0° 00' 00"
Sunlit
Object was in daylight at epoch
Visualization orbit readout
Latitude
Unknown
Longitude
Unknown
Altitude
Unknown
Speed
Unknown
Apparent Right ascension
Unknown
Apparent Declination
Unknown
Sunlit
N/A
Visualization observer readout
Local Sidereal Time
21:24:11
Azimuth
Unknown
Elevation
Unknown
Doppler factor
Unknown
Orbital elements
Apogee altitude
476.262 km
Perigee altitude
474.741 km
Semi-major axis
6,853.638 km
Eccentricity
0.00011
Inclination
53.1618°
RAAN
38.7665°
Arg. of periapsis
95.9103°
True anomaly
264.18985°
Mean anomaly
264.2025°
Eccentric anomaly
264.19617°
Mean motion
3.82526 °/min
Orbital period
94.11 mins
BSTAR
-0.000024888
Loading maneuver chart data...
Computing Atmospheric mass density...
Loading historical data...
Loading historical data...
Loading historical data...
Loading historical data...
Loading historical data...
Loading historical data...
Loading historical data...

Documentation

Showing up to 5 results
|